Orbital Elements at Epoch 2459200.5 (2020-Dec-17.0) TDB
Reference: JPL 23 (heliocentric ecliptic J2000)
Element | Value | Uncertainty (1-sigma) | Units |
e | .0841998587336447 | 3.7632e-08 | |
a | 3.015341670307084 | 1.9763e-08 | au |
q | 2.761450327633555 | 1.1497e-07 | au |
i | 2.555851571765407 | 4.1383e-06 | deg |
node | 277.8097939585034 | 0.00010621 | deg |
peri | 130.7193360541522 | 0.00011294 | deg |
M | 44.81719007047644 | 3.5095e-05 | deg |
tp | 2458962.407703430069 (2020-Apr-22.90770343) | 0.00018699 | TDB |
period | 1912.50782635833 5.24 | 1.8802e-05 5.148e-08 | d yr |
n | .1882345238217865 | 1.8505e-09 | deg/d |
Q | 3.269233012980613 | 2.1427e-08 | au |
|
| | Orbit Determination Parameters
Additional Information
|